sat.trackr.live / text

‹ back to catalog

STARLINK-30122

NORAD 56688 · 2023-067A

PAYLOAD ACTIVE UNKNOWN

§ Identity

Operator
Country
US
Launch date
2023-05-19
Launch site
AFETR
Launch vehicle
Mass (kg)
RCS (m²)

Purposes: comms

External: N2YO · Heavens-Above · Gunter

§ Orbital elements

Epoch: 2026-09-20T10:49:18.374304Z

Period
94.27 min
Inclination
43.0047°
Eccentricity
0.0001466
Mean motion
15.27577660 rev/d
Perigee alt
482.1 km
Apogee alt
484.1 km
Semi-major
6,861.2 km
B*
2.7259e-5
RAAN
258.1604°
Arg perigee
271.5676°
Mean anomaly
88.5008°
Rev number
18,547

§ Raw data

STARLINK-301221 56688U 23067A   26263.45090711  .00000488  00000+0  27259-4 0  99952 56688  43.0047 258.1604 0001466 271.5676  88.5008 15.27577660185470

JSON: /api/v1/satellites/56688 · /tle

For live sub-satellite position, see the globe view (requires WebGL).

§ Visibility from observer

Set your observer location to see the next 7 days of passes ≥ 10°. The values pass through the URL so the page stays shareable.

No JS? Fill the form by hand. The geolocation button needs JavaScript.